User: anonymous   Login
Location: Peebles
(55.6412°N, 3.1714°W)
Time: 00:09:40
(UTC+00:00)
Language:

Meteor 2-20 Rocket - Orbit

View from above orbital plane
View from above orbital plane
View from above satellite
View from above satellite

Ground track
Ground track

The orbit data is extracted from the following two-line orbital elements,

1 20827U 90086B   21331.61078661  .00000029  00000-0  13017-4 0  9994
2 20827  82.5271  87.0091 0013367  30.1404 330.0523 13.83907835574057
Epoch (UTC): 27 November 2021 14:39:31
Eccentricity: 0.0013367
inclination: 82.5271°
perigee height: 940 km
apogee height: 960 km
right ascension of ascending node: 87.0091°
argument of perigee: 30.1404°
revolutions per day: 13.83907835
mean anomaly at epoch: 330.0523°
orbit number at epoch: 57405

The dashed part of the orbit path shows where the satellite is in the earth's shadow,  

DLR